Weather History for KRGK - November, 2013

Change the Weather History Date:

Saturday, November 16, 2013

  Actual Average Record
Temperature  
Mean Temperature 48 °F -  
Max Temperature 55 °F 41 °F 64 °F (2001)
Min Temperature 41 °F 26 °F 8 °F (2014)
Degree Days  
Heating Degree Days 17    
Moisture  
Dew Point 42 °F    
Average Humidity 86    
Maximum Humidity 100    
Minimum Humidity 70    
Precipitation  
Precipitation 0.09 in - - ()
Sea Level Pressure  
Sea Level Pressure 29.44 in    
Wind  
Wind Speed 8 mph (SE)    
Max Wind Speed 16 mph    
Max Gust Speed 24 mph    
Visibility 8 miles    
Events Rain , Thunderstorm    
Averages and records for this station are not official NWS values.
T = Trace of Precipitation, MM = Missing Value Source: NWS Daily Summary

Daily Weather History Graph

Daily Weather History Graph

Search for Another Location

Airport or City:

Trip Planner

Search our weather history database for the weather conditions in past years. The results will help you decide how hot, cold, wet, or windy it might be!

Date:

Astronomy

Nov. 16, 2013 Rise Set
Actual Time 7:08 AM CST 4:40 PM CST
Civil Twilight 6:36 AM CST 5:12 PM CST
Nautical Twilight 6:01 AM CST 5:47 PM CST
Astronomical Twilight 5:26 AM CST 6:22 PM CST
Moon 4:17 PM CST (11/16) 6:02 AM CST (11/16)
Length of Visible Light 10h 36m
Length of Day
9h 32m
Waxing Gibbous, 99% of the Moon is Illuminated
Nov 16
Waxing Gibbous
Nov 17
Full
Nov 25
Last Quarter
Dec 2
New
Dec 9
First Quarter

Hourly Weather History & Observations

Time (CST) Temp. Windchill Dew Point Humidity Pressure Visibility Wind Dir Wind Speed Gust Speed Precip Events Conditions
12:15 AM 42.8 °F 38.0 °F 33.8 °F 70% 29.68 in 10.0 mi SSE 8.1 mph - N/A   Clear
12:35 AM 42.8 °F 38.0 °F 33.8 °F 70% 29.68 in 10.0 mi SSE 8.1 mph - N/A   Clear
12:55 AM 42.8 °F 38.6 °F 33.8 °F 70% 29.68 in 10.0 mi SE 6.9 mph - N/A   Clear
1:15 AM 42.8 °F 38.0 °F 33.8 °F 70% 29.67 in 10.0 mi SE 8.1 mph - N/A   Clear
1:35 AM 42.8 °F 39.3 °F 33.8 °F 70% 29.66 in 10.0 mi SE 5.8 mph - N/A   Scattered Clouds
1:55 AM 42.8 °F 38.0 °F 33.8 °F 70% 29.66 in 10.0 mi SSE 8.1 mph - N/A   Mostly Cloudy
2:15 AM 42.8 °F 38.0 °F 33.8 °F 70% 29.65 in 10.0 mi SE 8.1 mph - N/A   Overcast
2:35 AM 44.6 °F 40.2 °F 35.6 °F 71% 29.65 in 10.0 mi SE 8.1 mph - N/A   Mostly Cloudy
2:55 AM 44.6 °F 40.7 °F 35.6 °F 71% 29.64 in 10.0 mi SSE 6.9 mph - N/A   Mostly Cloudy
3:15 AM 44.6 °F 39.7 °F 35.6 °F 71% 29.63 in 10.0 mi SSE 9.2 mph - N/A   Mostly Cloudy
3:35 AM 44.6 °F 40.2 °F 35.6 °F 71% 29.62 in 10.0 mi SE 8.1 mph - N/A   Mostly Cloudy
3:55 AM 44.6 °F 40.2 °F 37.4 °F 76% 29.61 in 10.0 mi SE 8.1 mph - N/A   Mostly Cloudy
4:15 AM 44.6 °F 42.2 °F 37.4 °F 76% 29.60 in 10.0 mi SSE 4.6 mph - N/A   Mostly Cloudy
4:35 AM 44.6 °F 42.2 °F 37.4 °F 76% 29.59 in 10.0 mi ESE 4.6 mph - N/A   Scattered Clouds
4:55 AM 42.8 °F 40.1 °F 37.4 °F 81% 29.59 in 10.0 mi SE 4.6 mph - N/A   Scattered Clouds
5:15 AM 44.6 °F 42.2 °F 37.4 °F 76% 29.58 in 10.0 mi East 4.6 mph - N/A   Scattered Clouds
5:35 AM 42.8 °F - 37.4 °F 81% 29.58 in 10.0 mi Calm Calm - N/A   Mostly Cloudy
5:55 AM 44.6 °F 41.4 °F 37.4 °F 76% 29.57 in 10.0 mi ESE 5.8 mph - N/A   Scattered Clouds
6:15 AM 44.6 °F 42.2 °F 39.2 °F 81% 29.57 in 10.0 mi SE 4.6 mph - N/A   Mostly Cloudy
6:35 AM 44.6 °F 40.7 °F 39.2 °F 81% 29.56 in 10.0 mi SE 6.9 mph - N/A   Overcast
6:55 AM 44.6 °F 40.7 °F 39.2 °F 81% 29.56 in 10.0 mi SE 6.9 mph - N/A   Overcast
7:15 AM 44.6 °F 39.7 °F 39.2 °F 81% 29.56 in 10.0 mi SE 9.2 mph - N/A   Overcast
7:35 AM 44.6 °F 38.8 °F 39.2 °F 81% 29.55 in 10.0 mi SSE 11.5 mph - N/A   Overcast
7:55 AM 46.4 °F 41.9 °F 41.0 °F 81% 29.55 in 7.0 mi SE 9.2 mph 18.4 mph N/A   Overcast
8:15 AM 46.4 °F 41.1 °F 41.0 °F 81% 29.54 in 7.0 mi SSE 11.5 mph 17.3 mph N/A   Overcast
8:35 AM 46.4 °F 40.7 °F 41.0 °F 81% 29.54 in 5.0 mi South 12.7 mph 18.4 mph N/A   Haze
8:55 AM 44.6 °F 39.7 °F 41.0 °F 87% 29.54 in 5.0 mi SSE 9.2 mph 17.3 mph N/A   Overcast
9:15 AM 44.6 °F 38.8 °F 41.0 °F 87% 29.53 in 5.0 mi SSE 11.5 mph 17.3 mph N/A   Overcast
9:36 AM 44.6 °F 39.2 °F 42.8 °F 93% 29.52 in 4.0 mi SSE 10.4 mph - N/A   Overcast
9:55 AM 44.6 °F 40.2 °F 42.8 °F 93% 29.52 in 4.0 mi SE 8.1 mph - N/A   Overcast
10:15 AM 44.6 °F 39.2 °F 42.8 °F 93% 29.51 in 4.0 mi SE 10.4 mph - N/A   Overcast
10:35 AM 44.6 °F 39.2 °F 42.8 °F 93% 29.51 in 5.0 mi SE 10.4 mph 16.1 mph N/A   Overcast
10:55 AM 46.4 °F 41.5 °F 42.8 °F 87% 29.49 in 5.0 mi SE 10.4 mph - N/A   Overcast
11:15 AM 46.4 °F 41.1 °F 42.8 °F 87% 29.47 in 3.0 mi SE 11.5 mph - N/A   Overcast
11:35 AM 44.6 °F 37.4 °F 42.8 °F 93% 29.43 in 4.0 mi ESE 16.1 mph - N/A   Overcast
11:55 AM 46.4 °F 40.4 °F 42.8 °F 87% 29.42 in 5.0 mi SE 13.8 mph - N/A   Overcast
12:15 PM 46.4 °F 40.7 °F 44.6 °F 93% 29.42 in 4.0 mi SE 12.7 mph - N/A Rain Light Rain
12:35 PM 46.4 °F 40.7 °F 44.6 °F 93% 29.40 in 3.0 mi ESE 12.7 mph - N/A Thunderstorm Overcast
12:55 PM 46.4 °F 41.1 °F 44.6 °F 93% 29.39 in 1.2 mi SE 11.5 mph - N/A Rain , Thunderstorm Light Thunderstorms and Rain
1:15 PM 44.6 °F 38.8 °F 44.6 °F 100% 29.38 in 1.2 mi ESE 11.5 mph - 0.01 in Rain Light Rain
1:35 PM 44.6 °F 38.4 °F 44.6 °F 100% 29.36 in 1.2 mi ESE 12.7 mph - 0.01 in   Heavy Drizzle
1:55 PM 44.6 °F 38.8 °F 44.6 °F 100% 29.35 in 1.5 mi SE 11.5 mph - 0.02 in Rain , Thunderstorm Heavy Thunderstorms and Rain
2:15 PM 44.6 °F 39.2 °F 44.6 °F 100% 29.33 in 2.0 mi SE 10.4 mph - 0.02 in Rain Rain
2:35 PM 46.4 °F 40.7 °F 44.6 °F 93% 29.31 in 5.0 mi ESE 12.7 mph - 0.05 in Rain Light Rain
2:55 PM 46.4 °F 41.9 °F 46.4 °F 100% 29.31 in 7.0 mi SE 9.2 mph - 0.05 in Rain Rain
3:15 PM 46.4 °F 41.9 °F 46.4 °F 100% 29.29 in 7.0 mi ESE 9.2 mph - N/A   Overcast
3:35 PM 46.4 °F 41.5 °F 46.4 °F 100% 29.29 in 10.0 mi SE 10.4 mph - 0.01 in Rain Light Rain
3:55 PM 48.2 °F - 46.4 °F 93% 29.27 in 7.0 mi ESE 10.4 mph - 0.01 in Rain Light Rain
4:15 PM 48.2 °F - 46.4 °F 93% 29.25 in 7.0 mi SE 12.7 mph - N/A Rain , Thunderstorm Light Thunderstorms and Rain
4:35 PM 48.2 °F - 48.2 °F 100% 29.25 in 7.0 mi SE 11.5 mph - 0.01 in   Drizzle
4:55 PM 48.2 °F - 48.2 °F 100% 29.24 in 7.0 mi SE 11.5 mph - 0.01 in   Scattered Clouds
5:15 PM 50.0 °F - 48.2 °F 94% 29.23 in 7.0 mi SE 12.7 mph - N/A   Scattered Clouds
5:35 PM 50.0 °F - 48.2 °F 94% 29.24 in 7.0 mi SE 6.9 mph - N/A   Scattered Clouds
5:55 PM 51.8 °F - 50.0 °F 94% 29.25 in 7.0 mi Calm Calm - N/A   Mostly Cloudy
6:15 PM 51.8 °F - 50.0 °F 94% 29.25 in 5.0 mi SE 4.6 mph - N/A   Mostly Cloudy
6:35 PM 51.8 °F - 50.0 °F 94% 29.25 in 5.0 mi SE 4.6 mph - N/A   Scattered Clouds
6:55 PM 51.8 °F - 50.0 °F 94% 29.26 in 5.0 mi SSE 4.6 mph - N/A   Scattered Clouds
7:15 PM 53.6 °F - 51.8 °F 94% 29.26 in 7.0 mi SSW 4.6 mph - N/A   Scattered Clouds
7:35 PM 55.4 °F - 51.8 °F 88% 29.27 in 10.0 mi SW 11.5 mph 17.3 mph N/A   Scattered Clouds
7:55 PM 55.4 °F - 50.0 °F 82% 29.28 in 10.0 mi WSW 16.1 mph 21.9 mph N/A   Clear
8:15 PM 53.6 °F - 48.2 °F 82% 29.30 in 10.0 mi WSW 15.0 mph 24.2 mph N/A   Scattered Clouds
8:35 PM 51.8 °F - 46.4 °F 82% 29.32 in 10.0 mi WSW 12.7 mph 19.6 mph N/A   Scattered Clouds
8:55 PM 51.8 °F - 44.6 °F 76% 29.32 in 10.0 mi WSW 9.2 mph 16.1 mph N/A   Clear
9:15 PM 50.0 °F - 44.6 °F 82% 29.33 in 10.0 mi WSW 8.1 mph - N/A   Clear
9:35 PM 50.0 °F - 44.6 °F 82% 29.33 in 10.0 mi WSW 6.9 mph - N/A   Clear
9:55 PM 48.2 °F - 44.6 °F 87% 29.33 in 10.0 mi West 4.6 mph - N/A   Clear
10:15 PM 48.2 °F - 42.8 °F 82% 29.34 in 10.0 mi West 5.8 mph - N/A   Clear
10:36 PM 46.4 °F - 42.8 °F 87% 29.35 in 10.0 mi Calm Calm - N/A   Clear
10:55 PM 46.4 °F 45.2 °F 42.8 °F 87% 29.34 in 10.0 mi SSW 3.5 mph - N/A   Clear
11:15 PM 44.6 °F - 41.0 °F 87% 29.34 in 10.0 mi Calm Calm - N/A   Clear
11:35 PM 41.0 °F - 39.2 °F 93% 29.34 in 5.0 mi Calm Calm - N/A   Clear
11:55 PM 42.8 °F - 39.2 °F 87% 29.34 in 10.0 mi Calm Calm - N/A   Clear